Time,TemperatureF,DewpointF,PressureIn,WindDirection,WindDirectionDegrees,WindSpeedMPH,WindSpeedGustMPH,Humidity,HourlyPrecipIn,Conditions,Clouds,dailyrainin,SoftwareType,DateUTC
2013-03-01 00:00:00,33.3,31.2,29.83,East,98,0.0,0.0,92,0.00,,,0.08,Wunderground v.1.15,2013-03-01 05:00:00,
2013-03-01 00:01:00,33.2,31.1,29.83,East,98,0.0,0.0,92,0.00,,,0.08,Wunderground v.1.15,2013-03-01 05:01:00,
2013-03-01 00:03:00,33.2,31.1,29.83,SE,129,0.0,1.0,92,0.00,,,0.00,Wunderground v.1.15,2013-03-01 05:03:00,
2013-03-01 00:04:00,33.2,31.4,29.83,SE,129,0.0,1.0,93,0.00,,,0.00,Wunderground v.1.15,2013-03-01 05:04:00,
2013-03-01 00:06:00,33.2,31.4,29.83,SE,129,0.0,1.0,93,0.00,,,0.00,Wunderground v.1.15,2013-03-01 05:06:00,
2013-03-01 00:12:00,33.1,31.0,29.83,SE,132,0.0,2.0,92,0.00,,,0.00,Wunderground v.1.15,2013-03-01 05:12:00,
2013-03-01 00:17:00,33.0,30.9,29.84,South,171,0.0,2.0,92,0.00,,,0.00,Wunderground v.1.15,2013-03-01 05:17:00,
2013-03-01 00:23:00,32.9,30.6,29.84,West,260,1.0,4.0,91,0.00,,,0.00,Wunderground v.1.15,2013-03-01 05:23:00,
2013-03-01 00:28:00,32.9,30.6,29.84,ESE,105,1.0,4.0,91,0.00,,,0.00,Wunderground v.1.15,2013-03-01 05:28:00,
2013-03-01 00:33:00,32.9,30.6,29.84,NNE,27,0.0,0.0,91,0.00,,,0.00,Wunderground v.1.15,2013-03-01 05:33:00,
2013-03-01 00:39:00,33.0,30.7,29.84,ESE,108,1.0,2.0,91,0.00,,,0.00,Wunderground v.1.15,2013-03-01 05:39:00,
2013-03-01 00:44:00,33.0,30.7,29.84,East,92,1.0,4.0,91,0.00,,,0.00,Wunderground v.1.15,2013-03-01 05:44:00,
2013-03-01 00:49:00,33.0,30.7,29.85,SSW,202,1.0,4.0,91,0.00,,,0.00,Wunderground v.1.15,2013-03-01 05:49:00,
2013-03-01 00:55:00,32.9,30.3,29.85,SE,136,1.0,1.0,90,0.00,,,0.00,Wunderground v.1.15,2013-03-01 05:55:00,
2013-03-01 01:00:00,32.9,30.3,29.85,SSW,198,0.0,2.0,90,0.00,,,0.00,Wunderground v.1.15,2013-03-01 06:00:00,
2013-03-01 01:06:00,32.8,30.2,29.85,ESE,113,1.0,2.0,90,0.00,,,0.00,Wunderground v.1.15,2013-03-01 06:06:00,
2013-03-01 01:11:00,32.8,29.9,29.85,East,86,0.0,1.0,89,0.00,,,0.00,Wunderground v.1.15,2013-03-01 06:11:00,
2013-03-01 01:16:00,32.7,29.8,29.85,North,355,0.0,3.0,89,0.00,,,0.00,Wunderground v.1.15,2013-03-01 06:16:00,
2013-03-01 01:22:00,32.7,29.8,29.85,South,185,0.0,0.0,89,0.00,,,0.00,Wunderground v.1.15,2013-03-01 06:22:00,
2013-03-01 01:27:00,32.6,29.7,29.85,SSE,165,0.0,2.0,89,0.00,,,0.00,Wunderground v.1.15,2013-03-01 06:27:00,
2013-03-01 01:33:00,32.6,29.7,29.85,ENE,61,1.0,7.0,89,0.00,,,0.00,Wunderground v.1.15,2013-03-01 06:33:00,
2013-03-01 01:38:00,32.6,29.7,29.85,South,172,1.0,7.0,89,0.00,,,0.00,Wunderground v.1.15,2013-03-01 06:38:00,
2013-03-01 01:43:00,32.6,29.7,29.86,SE,129,1.0,2.0,89,0.00,,,0.00,Wunderground v.1.15,2013-03-01 06:43:00,
2013-03-01 01:49:00,32.5,29.6,29.86,SSE,165,1.0,2.0,89,0.00,,,0.00,Wunderground v.1.15,2013-03-01 06:49:00,
2013-03-01 01:54:00,32.5,29.6,29.86,SSE,164,0.0,1.0,89,0.00,,,0.00,Wunderground v.1.15,2013-03-01 06:54:00,
2013-03-01 01:59:00,32.5,29.3,29.86,SE,126,0.0,1.0,88,0.00,,,0.00,Wunderground v.1.15,2013-03-01 06:59:00,
2013-03-01 02:05:00,32.5,29.3,29.86,WSW,238,0.0,0.0,88,0.00,,,0.00,Wunderground v.1.15,2013-03-01 07:05:00,
2013-03-01 02:10:00,32.5,29.3,29.86,SSE,148,0.0,0.0,88,0.00,,,0.00,Wunderground v.1.15,2013-03-01 07:10:00,
2013-03-01 02:15:00,32.4,29.5,29.86,East,101,0.0,0.0,89,0.00,,,0.00,Wunderground v.1.15,2013-03-01 07:15:00,
2013-03-01 02:20:00,32.4,29.5,29.86,NE,55,0.0,1.0,89,0.00,,,0.00,Wunderground v.1.15,2013-03-01 07:20:00,
2013-03-01 02:26:00,32.4,29.2,29.86,East,100,0.0,1.0,88,0.00,,,0.00,Wunderground v.1.15,2013-03-01 07:26:00,
2013-03-01 02:31:00,32.3,29.4,29.86,East,91,0.0,0.0,89,0.00,,,0.00,Wunderground v.1.15,2013-03-01 07:31:00,
2013-03-01 02:36:00,32.3,29.1,29.86,SSE,161,1.0,2.0,88,0.00,,,0.00,Wunderground v.1.15,2013-03-01 07:36:00,
2013-03-01 02:41:00,32.3,29.1,29.86,North,10,0.0,2.0,88,0.00,,,0.00,Wunderground v.1.15,2013-03-01 07:41:00,
2013-03-01 02:47:00,32.3,29.1,29.86,SW,226,0.0,2.0,88,0.00,,,0.00,Wunderground v.1.15,2013-03-01 07:47:00,
2013-03-01 02:52:00,32.3,29.1,29.86,ESE,106,0.0,1.0,88,0.00,,,0.00,Wunderground v.1.15,2013-03-01 07:52:00,
2013-03-01 02:57:00,32.3,29.1,29.86,East,80,0.0,1.0,88,0.00,,,0.00,Wunderground v.1.15,2013-03-01 07:57:00,
2013-03-01 03:03:00,32.2,29.0,29.86,NE,41,0.0,4.0,88,0.00,,,0.00,Wunderground v.1.15,2013-03-01 08:03:00,
2013-03-01 03:08:00,32.2,29.0,29.86,SE,144,0.0,4.0,88,0.00,,,0.00,Wunderground v.1.15,2013-03-01 08:08:00,
2013-03-01 03:13:00,32.2,29.0,29.86,SE,144,0.0,0.0,88,0.00,,,0.00,Wunderground v.1.15,2013-03-01 08:13:00,
2013-03-01 03:19:00,32.1,28.9,29.86,SSE,154,0.0,1.0,88,0.00,,,0.00,Wunderground v.1.15,2013-03-01 08:19:00,
2013-03-01 03:24:00,32.1,28.9,29.86,WNW,284,0.0,3.0,88,0.00,,,0.00,Wunderground v.1.15,2013-03-01 08:24:00,
2013-03-01 03:29:00,32.1,28.9,29.86,East,88,0.0,3.0,88,0.00,,,0.00,Wunderground v.1.15,2013-03-01 08:29:00,
2013-03-01 03:34:00,32.1,28.9,29.86,North,360,0.0,1.0,88,0.00,,,0.00,Wunderground v.1.15,2013-03-01 08:34:00,
2013-03-01 03:40:00,32.0,28.8,29.86,ESE,121,0.0,0.0,88,0.00,,,0.00,Wunderground v.1.15,2013-03-01 08:40:00,
2013-03-01 03:46:00,31.9,28.5,29.86,NE,34,0.0,3.0,87,0.00,,,0.00,Wunderground v.1.15,2013-03-01 08:46:00,
2013-03-01 03:52:00,31.9,28.5,29.86,NNE,14,1.0,2.0,87,0.00,,,0.00,Wunderground v.1.15,2013-03-01 08:52:00,
2013-03-01 03:57:00,31.9,28.5,29.86,North,5,0.0,2.0,87,0.00,,,0.00,Wunderground v.1.15,2013-03-01 08:57:00,
2013-03-01 04:02:00,31.9,28.8,29.86,East,94,0.0,3.0,88,0.00,,,0.00,Wunderground v.1.15,2013-03-01 09:02:00,
2013-03-01 04:08:00,31.9,28.8,29.86,NE,39,0.0,3.0,88,0.00,,,0.00,Wunderground v.1.15,2013-03-01 09:08:00,
2013-03-01 04:13:00,31.9,28.8,29.86,SSE,153,1.0,2.0,88,0.00,,,0.00,Wunderground v.1.15,2013-03-01 09:13:00,
2013-03-01 04:18:00,31.7,28.6,29.86,ENE,60,1.0,3.0,88,0.00,,,0.00,Wunderground v.1.15,2013-03-01 09:18:00,
2013-03-01 04:23:00,31.7,28.6,29.86,ESE,110,1.0,1.0,88,0.00,,,0.00,Wunderground v.1.15,2013-03-01 09:23:00,
2013-03-01 04:28:00,31.7,28.6,29.86,SE,142,0.0,1.0,88,0.00,,,0.00,Wunderground v.1.15,2013-03-01 09:28:00,
2013-03-01 04:34:00,31.7,28.6,29.86,SE,136,0.0,0.0,88,0.00,,,0.00,Wunderground v.1.15,2013-03-01 09:34:00,
2013-03-01 04:39:00,31.7,28.6,29.87,ENE,58,0.0,0.0,88,0.00,,,0.00,Wunderground v.1.15,2013-03-01 09:39:00,
2013-03-01 04:44:00,31.7,28.6,29.87,East,98,0.0,1.0,88,0.00,,,0.00,Wunderground v.1.15,2013-03-01 09:44:00,
2013-03-01 04:50:00,31.7,28.3,29.87,ESE,119,0.0,0.0,87,0.00,,,0.00,Wunderground v.1.15,2013-03-01 09:50:00,
2013-03-01 04:55:00,31.7,28.3,29.87,ESE,119,0.0,5.0,87,0.00,,,0.00,Wunderground v.1.15,2013-03-01 09:55:00,
2013-03-01 05:00:00,31.6,28.2,29.87,West,261,0.0,0.0,87,0.00,,,0.00,Wunderground v.1.15,2013-03-01 10:00:00,
2013-03-01 05:06:00,31.6,28.2,29.87,ESE,102,0.0,0.0,87,0.00,,,0.00,Wunderground v.1.15,2013-03-01 10:06:00,
2013-03-01 05:11:00,31.6,28.5,29.87,SSE,161,0.0,0.0,88,0.00,,,0.00,Wunderground v.1.15,2013-03-01 10:11:00,
2013-03-01 05:16:00,31.6,28.5,29.87,SSE,161,0.0,0.0,88,0.00,,,0.00,Wunderground v.1.15,2013-03-01 10:16:00,
2013-03-01 05:22:00,31.5,28.4,29.87,ESE,111,0.0,4.0,88,0.00,,,0.00,Wunderground v.1.15,2013-03-01 10:22:00,
2013-03-01 05:27:00,31.4,28.3,29.87,ESE,109,0.0,4.0,88,0.00,,,0.00,Wunderground v.1.15,2013-03-01 10:27:00,
2013-03-01 05:33:00,31.4,28.3,29.87,North,350,0.0,1.0,88,0.00,,,0.00,Wunderground v.1.15,2013-03-01 10:33:00,
2013-03-01 05:38:00,31.4,28.3,29.87,ENE,61,0.0,1.0,88,0.00,,,0.00,Wunderground v.1.15,2013-03-01 10:38:00,
2013-03-01 05:44:00,31.3,28.2,29.87,SE,136,0.0,1.0,88,0.00,,,0.00,Wunderground v.1.15,2013-03-01 10:44:00,
2013-03-01 05:49:00,31.3,28.2,29.87,SE,130,0.0,1.0,88,0.00,,,0.00,Wunderground v.1.15,2013-03-01 10:49:00,
2013-03-01 05:55:00,31.3,28.2,29.88,ESE,117,0.0,1.0,88,0.00,,,0.00,Wunderground v.1.15,2013-03-01 10:55:00,
2013-03-01 06:00:00,31.3,27.9,29.88,ENE,76,0.0,2.0,87,0.00,,,0.00,Wunderground v.1.15,2013-03-01 11:00:00,
2013-03-01 06:06:00,31.2,27.8,29.88,East,96,1.0,2.0,87,0.00,,,0.00,Wunderground v.1.15,2013-03-01 11:06:00,
2013-03-01 06:11:00,31.2,27.8,29.88,NNW,333,1.0,1.0,87,0.00,,,0.00,Wunderground v.1.15,2013-03-01 11:11:00,
2013-03-01 06:17:00,31.2,27.5,29.88,East,87,0.0,1.0,86,0.00,,,0.00,Wunderground v.1.15,2013-03-01 11:17:00,
2013-03-01 06:22:00,31.2,27.8,29.88,WSW,257,0.0,1.0,87,0.00,,,0.00,Wunderground v.1.15,2013-03-01 11:22:00,
2013-03-01 06:28:00,31.2,28.1,29.88,SSE,148,0.0,1.0,88,0.00,,,0.00,Wunderground v.1.15,2013-03-01 11:28:00,
2013-03-01 06:33:00,31.2,28.1,29.88,SSE,148,0.0,0.0,88,0.00,,,0.00,Wunderground v.1.15,2013-03-01 11:33:00,
2013-03-01 06:39:00,31.2,28.1,29.89,ENE,78,0.0,0.0,88,0.00,,,0.00,Wunderground v.1.15,2013-03-01 11:39:00,
2013-03-01 06:44:00,31.2,28.1,29.89,ENE,61,0.0,2.0,88,0.00,,,0.00,Wunderground v.1.15,2013-03-01 11:44:00,
2013-03-01 06:49:00,31.1,27.7,29.89,NE,56,0.0,2.0,87,0.00,,,0.00,Wunderground v.1.15,2013-03-01 11:49:00,
2013-03-01 06:54:00,31.1,28.0,29.89,NE,56,0.0,0.0,88,0.00,,,0.00,Wunderground v.1.15,2013-03-01 11:54:00,
2013-03-01 07:00:00,31.1,28.0,29.89,NE,56,0.0,0.0,88,0.00,,,0.00,Wunderground v.1.15,2013-03-01 12:00:00,
2013-03-01 07:06:00,31.0,27.9,29.89,ENE,61,0.0,2.0,88,0.00,,,0.00,Wunderground v.1.15,2013-03-01 12:06:00,
2013-03-01 07:12:00,31.0,27.9,29.89,ENE,61,0.0,0.0,88,0.00,,,0.00,Wunderground v.1.15,2013-03-01 12:12:00,
2013-03-01 07:17:00,31.0,27.6,29.90,ENE,62,0.0,0.0,87,0.00,,,0.00,Wunderground v.1.15,2013-03-01 12:17:00,
2013-03-01 07:22:00,31.0,27.9,29.90,East,94,0.0,0.0,88,0.00,,,0.00,Wunderground v.1.15,2013-03-01 12:22:00,
2013-03-01 07:27:00,31.0,27.6,29.90,ESE,117,0.0,0.0,87,0.00,,,0.00,Wunderground v.1.15,2013-03-01 12:27:00,
2013-03-01 07:33:00,31.0,27.6,29.90,ESE,117,0.0,1.0,87,0.00,,,0.00,Wunderground v.1.15,2013-03-01 12:33:00,
2013-03-01 07:38:00,31.0,27.9,29.90,ESE,108,0.0,1.0,88,0.00,,,0.00,Wunderground v.1.15,2013-03-01 12:38:00,
2013-03-01 07:43:00,31.0,27.6,29.91,ESE,109,0.0,0.0,87,0.00,,,0.00,Wunderground v.1.15,2013-03-01 12:43:00,
2013-03-01 07:49:00,31.0,27.9,29.91,ESE,110,0.0,0.0,88,0.00,,,0.00,Wunderground v.1.15,2013-03-01 12:49:00,
2013-03-01 07:54:00,30.9,27.8,29.91,ESE,111,0.0,0.0,88,0.00,,,0.00,Wunderground v.1.15,2013-03-01 12:54:00,
2013-03-01 07:59:00,31.0,27.9,29.92,ESE,111,0.0,0.0,88,0.00,,,0.00,Wunderground v.1.15,2013-03-01 12:59:00,
2013-03-01 08:04:00,31.0,27.9,29.92,ESE,106,0.0,0.0,88,0.00,,,0.00,Wunderground v.1.15,2013-03-01 13:04:00,
2013-03-01 08:09:00,31.0,27.9,29.92,ESE,106,0.0,0.0,88,0.00,,,0.00,Wunderground v.1.15,2013-03-01 13:09:00,
2013-03-01 08:15:00,31.0,27.6,29.92,SE,142,0.0,0.0,87,0.00,,,0.00,Wunderground v.1.15,2013-03-01 13:15:00,
2013-03-01 08:20:00,31.0,27.6,29.92,ESE,112,0.0,0.0,87,0.00,,,0.00,Wunderground v.1.15,2013-03-01 13:20:00,
2013-03-01 08:25:00,31.0,27.6,29.92,ENE,68,0.0,2.0,87,0.00,,,0.00,Wunderground v.1.15,2013-03-01 13:25:00,
2013-03-01 08:31:00,31.0,27.9,29.92,NE,55,0.0,1.0,88,0.00,,,0.00,Wunderground v.1.15,2013-03-01 13:31:00,
2013-03-01 08:37:00,31.0,27.9,29.93,ESE,105,0.0,1.0,88,0.00,,,0.00,Wunderground v.1.15,2013-03-01 13:37:00,
2013-03-01 08:42:00,30.9,27.8,29.93,ESE,110,0.0,0.0,88,0.00,,,0.00,Wunderground v.1.15,2013-03-01 13:42:00,
2013-03-01 08:47:00,30.9,28.0,29.93,ESE,110,0.0,0.0,89,0.00,,,0.00,Wunderground v.1.15,2013-03-01 13:47:00,
2013-03-01 08:52:00,31.0,28.1,29.93,SE,146,0.0,0.0,89,0.00,,,0.00,Wunderground v.1.15,2013-03-01 13:52:00,
2013-03-01 08:58:00,31.0,27.9,29.93,SSE,150,0.0,1.0,88,0.00,,,0.00,Wunderground v.1.15,2013-03-01 13:58:00,
2013-03-01 09:03:00,31.0,27.9,29.93,SW,233,0.0,1.0,88,0.00,,,0.00,Wunderground v.1.15,2013-03-01 14:03:00,
2013-03-01 09:08:00,31.1,28.0,29.93,WNW,298,0.0,1.0,88,0.00,,,0.00,Wunderground v.1.15,2013-03-01 14:08:00,
2013-03-01 09:13:00,31.2,28.3,29.93,South,184,0.0,0.0,89,0.00,,,0.00,Wunderground v.1.15,2013-03-01 14:13:00,
2013-03-01 09:18:00,31.4,28.5,29.93,ESE,105,0.0,0.0,89,0.00,,,0.00,Wunderground v.1.15,2013-03-01 14:18:00,
2013-03-01 09:24:00,31.5,28.6,29.93,ESE,108,0.0,1.0,89,0.00,,,0.00,Wunderground v.1.15,2013-03-01 14:24:00,
2013-03-01 09:29:00,31.5,28.4,29.93,ENE,61,0.0,2.0,88,0.00,,,0.00,Wunderground v.1.15,2013-03-01 14:29:00,
2013-03-01 09:34:00,31.5,28.1,29.93,North,355,0.0,3.0,87,0.00,,,0.00,Wunderground v.1.15,2013-03-01 14:34:00,
2013-03-01 09:39:00,31.6,28.5,29.93,ESE,107,0.0,3.0,88,0.00,,,0.00,Wunderground v.1.15,2013-03-01 14:39:00,
2013-03-01 09:44:00,31.7,28.0,29.93,ENE,71,0.0,3.0,86,0.00,,,0.00,Wunderground v.1.15,2013-03-01 14:44:00,
2013-03-01 09:49:00,31.8,27.8,29.94,East,96,1.0,6.0,85,0.00,,,0.00,Wunderground v.1.15,2013-03-01 14:49:00,
2013-03-01 09:55:00,31.8,27.5,29.93,NNW,340,1.0,2.0,84,0.00,,,0.00,Wunderground v.1.15,2013-03-01 14:55:00,
2013-03-01 10:00:00,32.0,27.7,29.93,East,87,1.0,1.0,84,0.00,,,0.00,Wunderground v.1.15,2013-03-01 15:00:00,
2013-03-01 10:06:00,32.2,27.9,29.93,NNE,30,0.0,1.0,84,0.00,,,0.00,Wunderground v.1.15,2013-03-01 15:06:00,
2013-03-01 10:12:00,32.3,28.0,29.93,East,82,0.0,0.0,84,0.00,,,0.00,Wunderground v.1.15,2013-03-01 15:12:00,
2013-03-01 10:17:00,32.4,27.8,29.93,NE,37,0.0,3.0,83,0.00,,,0.00,Wunderground v.1.15,2013-03-01 15:17:00,
2013-03-01 10:22:00,32.5,27.9,29.93,NNE,29,1.0,5.0,83,0.00,,,0.00,Wunderground v.1.15,2013-03-01 15:22:00,
2013-03-01 10:27:00,32.6,28.0,29.93,East,84,1.0,5.0,83,0.00,,,0.00,Wunderground v.1.15,2013-03-01 15:27:00,
2013-03-01 10:33:00,32.7,27.8,29.93,NE,55,1.0,5.0,82,0.00,,,0.00,Wunderground v.1.15,2013-03-01 15:33:00,
2013-03-01 10:38:00,32.6,27.4,29.93,NE,50,1.0,5.0,81,0.00,,,0.00,Wunderground v.1.15,2013-03-01 15:38:00,
2013-03-01 10:43:00,32.5,27.6,29.93,NE,44,1.0,2.0,82,0.00,,,0.00,Wunderground v.1.15,2013-03-01 15:43:00,
2013-03-01 10:48:00,32.5,27.9,29.93,West,280,1.0,2.0,83,0.00,,,0.00,Wunderground v.1.15,2013-03-01 15:48:00,
2013-03-01 10:54:00,32.6,27.7,29.94,South,174,0.0,1.0,82,0.00,,,0.00,Wunderground v.1.15,2013-03-01 15:54:00,
2013-03-01 10:59:00,32.6,27.4,29.94,East,97,0.0,1.0,81,0.00,,,0.01,Wunderground v.1.15,2013-03-01 15:59:00,
2013-03-01 11:04:00,32.6,27.1,29.94,East,79,0.0,0.0,80,0.00,,,0.01,Wunderground v.1.15,2013-03-01 16:04:00,
2013-03-01 11:10:00,32.7,27.8,29.94,ESE,120,0.0,0.0,82,0.00,,,0.01,Wunderground v.1.15,2013-03-01 16:10:00,
2013-03-01 11:15:00,32.9,27.7,29.94,WNW,294,1.0,2.0,81,0.00,,,0.01,Wunderground v.1.15,2013-03-01 16:15:00,
2013-03-01 11:20:00,32.9,27.4,29.94,NNE,23,1.0,1.0,80,0.00,,,0.01,Wunderground v.1.15,2013-03-01 16:20:00,
2013-03-01 11:25:00,33.0,27.5,29.94,SW,226,0.0,1.0,80,0.00,,,0.01,Wunderground v.1.15,2013-03-01 16:25:00,
2013-03-01 11:31:00,33.0,27.5,29.94,SE,145,1.0,1.0,80,0.00,,,0.01,Wunderground v.1.15,2013-03-01 16:31:00,
2013-03-01 11:37:00,33.2,28.0,29.94,ENE,62,0.0,1.0,81,0.00,,,0.01,Wunderground v.1.15,2013-03-01 16:37:00,
2013-03-01 11:42:00,33.2,27.4,29.95,NE,49,1.0,4.0,79,0.00,,,0.01,Wunderground v.1.15,2013-03-01 16:42:00,
2013-03-01 11:47:00,33.3,27.8,29.95,ENE,63,1.0,4.0,80,0.00,,,0.01,Wunderground v.1.15,2013-03-01 16:47:00,
2013-03-01 11:53:00,33.3,27.5,29.95,East,99,0.0,2.0,79,0.00,,,0.01,Wunderground v.1.15,2013-03-01 16:53:00,
2013-03-01 11:58:00,33.1,27.0,29.95,SE,139,1.0,2.0,78,0.00,,,0.01,Wunderground v.1.15,2013-03-01 16:58:00,
2013-03-01 12:03:00,33.0,27.2,29.95,WNW,303,1.0,2.0,79,0.00,,,0.01,Wunderground v.1.15,2013-03-01 17:03:00,
2013-03-01 12:09:00,32.8,27.0,29.95,ESE,105,1.0,2.0,79,0.00,,,0.01,Wunderground v.1.15,2013-03-01 17:09:00,
2013-03-01 12:14:00,32.5,26.4,29.95,ESE,117,1.0,2.0,78,0.00,,,0.01,Wunderground v.1.15,2013-03-01 17:14:00,
2013-03-01 12:20:00,32.4,26.6,29.95,NE,54,1.0,1.0,79,0.00,,,0.01,Wunderground v.1.15,2013-03-01 17:20:00,
2013-03-01 12:25:00,32.4,26.3,29.95,NNE,17,1.0,2.0,78,0.00,,,0.01,Wunderground v.1.15,2013-03-01 17:25:00,
2013-03-01 12:31:00,32.6,26.8,29.95,SE,142,1.0,3.0,79,0.00,,,0.01,Wunderground v.1.15,2013-03-01 17:31:00,
2013-03-01 12:36:00,32.8,26.7,29.95,SW,223,1.0,5.0,78,0.00,,,0.01,Wunderground v.1.15,2013-03-01 17:36:00,
2013-03-01 12:42:00,33.0,27.2,29.94,ENE,78,1.0,1.0,79,0.00,,,0.01,Wunderground v.1.15,2013-03-01 17:42:00,
2013-03-01 12:47:00,33.3,27.2,29.94,SE,132,0.0,2.0,78,0.00,,,0.01,Wunderground v.1.15,2013-03-01 17:47:00,
2013-03-01 12:52:00,33.4,27.3,29.94,SW,221,0.0,0.0,78,0.00,,,0.01,Wunderground v.1.15,2013-03-01 17:52:00,
2013-03-01 12:57:00,33.3,27.2,29.94,NNE,19,1.0,1.0,78,0.00,,,0.01,Wunderground v.1.15,2013-03-01 17:57:00,
2013-03-01 13:02:00,33.2,27.1,29.94,SE,131,1.0,1.0,78,0.00,,,0.01,Wunderground v.1.15,2013-03-01 18:02:00,
2013-03-01 13:08:00,33.1,26.7,29.94,SE,125,0.0,1.0,77,0.00,,,0.01,Wunderground v.1.15,2013-03-01 18:08:00,
2013-03-01 13:13:00,33.0,26.6,29.94,ENE,69,0.0,1.0,77,0.00,,,0.01,Wunderground v.1.15,2013-03-01 18:13:00,
2013-03-01 13:19:00,32.9,26.5,29.94,NE,36,0.0,1.0,77,0.00,,,0.01,Wunderground v.1.15,2013-03-01 18:19:00,
2013-03-01 13:24:00,32.9,26.5,29.94,SSE,155,0.0,0.0,77,0.00,,,0.01,Wunderground v.1.15,2013-03-01 18:24:00,
2013-03-01 13:29:00,32.8,26.4,29.94,East,82,0.0,5.0,77,0.00,,,0.01,Wunderground v.1.15,2013-03-01 18:29:00,
2013-03-01 13:35:00,32.7,26.9,29.94,SSE,166,0.0,2.0,79,0.00,,,0.01,Wunderground v.1.15,2013-03-01 18:35:00,
2013-03-01 13:40:00,32.7,26.0,29.94,SSW,194,1.0,1.0,76,0.00,,,0.01,Wunderground v.1.15,2013-03-01 18:40:00,
2013-03-01 13:45:00,32.4,26.0,29.94,NNE,13,1.0,2.0,77,0.00,,,0.01,Wunderground v.1.15,2013-03-01 18:45:00,
2013-03-01 13:50:00,32.3,25.9,29.94,NW,309,1.0,1.0,77,0.00,,,0.01,Wunderground v.1.15,2013-03-01 18:50:00,
2013-03-01 13:55:00,32.1,26.0,29.94,ENE,67,0.0,3.0,78,0.00,,,0.01,Wunderground v.1.15,2013-03-01 18:55:00,
2013-03-01 14:00:00,32.0,26.5,29.94,East,80,0.0,0.0,80,0.00,,,0.01,Wunderground v.1.15,2013-03-01 19:00:00,
2013-03-01 14:06:00,31.9,26.4,29.94,West,262,1.0,1.0,80,0.00,,,0.01,Wunderground v.1.15,2013-03-01 19:06:00,
2013-03-01 14:11:00,31.6,25.8,29.94,ENE,57,1.0,3.0,79,0.00,,,0.01,Wunderground v.1.15,2013-03-01 19:11:00,
2013-03-01 14:16:00,31.4,25.9,29.94,NE,38,1.0,3.0,80,0.00,,,0.01,Wunderground v.1.15,2013-03-01 19:16:00,
2013-03-01 14:21:00,31.3,25.5,29.94,ENE,67,1.0,2.0,79,0.00,,,0.01,Wunderground v.1.15,2013-03-01 19:21:00,
2013-03-01 14:27:00,31.5,26.0,29.94,SE,138,1.0,2.0,80,0.00,,,0.01,Wunderground v.1.15,2013-03-01 19:27:00,
2013-03-01 14:32:00,31.6,25.8,29.94,ESE,112,0.0,0.0,79,0.00,,,0.01,Wunderground v.1.15,2013-03-01 19:32:00,
2013-03-01 14:37:00,31.6,25.8,29.94,NNE,32,0.0,1.0,79,0.00,,,0.01,Wunderground v.1.15,2013-03-01 19:37:00,
2013-03-01 14:43:00,31.5,26.0,29.94,East,83,1.0,1.0,80,0.00,,,0.01,Wunderground v.1.15,2013-03-01 19:43:00,
2013-03-01 14:48:00,31.4,25.9,29.94,NE,42,1.0,3.0,80,0.00,,,0.01,Wunderground v.1.15,2013-03-01 19:48:00,
2013-03-01 14:53:00,31.4,25.6,29.94,East,87,1.0,2.0,79,0.00,,,0.01,Wunderground v.1.15,2013-03-01 19:53:00,
2013-03-01 14:59:00,31.2,25.4,29.94,NE,52,1.0,3.0,79,0.00,,,0.01,Wunderground v.1.15,2013-03-01 19:59:00,
2013-03-01 15:04:00,31.1,25.3,29.94,NNE,15,1.0,2.0,79,0.00,,,0.01,Wunderground v.1.15,2013-03-01 20:04:00,
2013-03-01 15:09:00,31.1,25.3,29.94,NE,37,1.0,3.0,79,0.00,,,0.01,Wunderground v.1.15,2013-03-01 20:09:00,
2013-03-01 15:14:00,31.2,25.7,29.94,East,93,1.0,1.0,80,0.00,,,0.01,Wunderground v.1.15,2013-03-01 20:14:00,
2013-03-01 15:20:00,31.3,25.5,29.94,East,86,0.0,1.0,79,0.00,,,0.01,Wunderground v.1.15,2013-03-01 20:20:00,
2013-03-01 15:25:00,31.4,25.9,29.94,WSW,252,0.0,2.0,80,0.00,,,0.01,Wunderground v.1.15,2013-03-01 20:25:00,
2013-03-01 15:30:00,31.4,25.6,29.94,ENE,58,0.0,0.0,79,0.00,,,0.01,Wunderground v.1.15,2013-03-01 20:30:00,
2013-03-01 15:36:00,31.3,25.2,29.94,NE,40,0.0,2.0,78,0.00,,,0.01,Wunderground v.1.15,2013-03-01 20:36:00,
2013-03-01 15:42:00,31.1,24.7,29.94,North,355,1.0,2.0,77,0.00,,,0.01,Wunderground v.1.15,2013-03-01 20:42:00,
2013-03-01 15:47:00,31.0,24.9,29.94,SSE,153,1.0,2.0,78,0.00,,,0.01,Wunderground v.1.15,2013-03-01 20:47:00,
2013-03-01 15:52:00,30.9,24.8,29.94,WNW,287,0.0,2.0,78,0.00,,,0.01,Wunderground v.1.15,2013-03-01 20:52:00,
2013-03-01 15:57:00,30.8,24.7,29.95,ESE,103,0.0,2.0,78,0.00,,,0.01,Wunderground v.1.15,2013-03-01 20:57:00,
2013-03-01 16:03:00,30.9,25.2,29.95,SW,223,0.0,0.0,79,0.00,,,0.01,Wunderground v.1.15,2013-03-01 21:03:00,
2013-03-01 16:08:00,30.8,24.7,29.95,ENE,60,1.0,4.0,78,0.00,,,0.01,Wunderground v.1.15,2013-03-01 21:08:00,
2013-03-01 16:13:00,30.7,25.0,29.95,NNE,30,1.0,2.0,79,0.00,,,0.01,Wunderground v.1.15,2013-03-01 21:13:00,
2013-03-01 16:18:00,30.6,24.9,29.95,ENE,68,1.0,5.0,79,0.00,,,0.01,Wunderground v.1.15,2013-03-01 21:18:00,
2013-03-01 16:24:00,30.6,24.9,29.95,East,88,1.0,2.0,79,0.00,,,0.01,Wunderground v.1.15,2013-03-01 21:24:00,
2013-03-01 16:29:00,30.6,24.9,29.95,WNW,288,0.0,2.0,79,0.00,,,0.01,Wunderground v.1.15,2013-03-01 21:29:00,
2013-03-01 16:35:00,30.5,25.1,29.95,SSE,154,0.0,2.0,80,0.00,,,0.01,Wunderground v.1.15,2013-03-01 21:35:00,
2013-03-01 16:40:00,30.5,25.1,29.95,ENE,76,0.0,0.0,80,0.00,,,0.01,Wunderground v.1.15,2013-03-01 21:40:00,
2013-03-01 16:45:00,30.5,24.8,29.95,ENE,69,0.0,0.0,79,0.00,,,0.01,Wunderground v.1.15,2013-03-01 21:45:00,
2013-03-01 16:50:00,30.5,24.8,29.96,East,83,0.0,2.0,79,0.00,,,0.01,Wunderground v.1.15,2013-03-01 21:50:00,
2013-03-01 16:56:00,30.5,25.1,29.96,East,94,1.0,3.0,80,0.00,,,0.01,Wunderground v.1.15,2013-03-01 21:56:00,
2013-03-01 17:01:00,30.5,24.8,29.96,ENE,59,1.0,1.0,79,0.00,,,0.01,Wunderground v.1.15,2013-03-01 22:01:00,
2013-03-01 17:07:00,30.5,25.1,29.96,ENE,59,0.0,1.0,80,0.00,,,0.01,Wunderground v.1.15,2013-03-01 22:07:00,
2013-03-01 17:12:00,30.4,24.7,29.96,SE,140,0.0,0.0,79,0.00,,,0.01,Wunderground v.1.15,2013-03-01 22:12:00,
2013-03-01 17:17:00,30.4,24.7,29.96,NNE,33,0.0,1.0,79,0.00,,,0.01,Wunderground v.1.15,2013-03-01 22:17:00,
2013-03-01 17:22:00,30.3,24.6,29.96,SE,124,0.0,0.0,79,0.00,,,0.01,Wunderground v.1.15,2013-03-01 22:22:00,
2013-03-01 17:27:00,30.3,24.6,29.96,NE,51,0.0,2.0,79,0.00,,,0.01,Wunderground v.1.15,2013-03-01 22:27:00,
2013-03-01 17:32:00,30.3,24.6,29.97,NE,40,0.0,1.0,79,0.00,,,0.01,Wunderground v.1.15,2013-03-01 22:32:00,
2013-03-01 17:37:00,30.3,24.6,29.97,NE,35,0.0,3.0,79,0.00,,,0.01,Wunderground v.1.15,2013-03-01 22:37:00,
2013-03-01 17:43:00,30.3,24.6,29.97,SE,125,0.0,0.0,79,0.00,,,0.01,Wunderground v.1.15,2013-03-01 22:43:00,
2013-03-01 17:48:00,30.2,24.2,29.97,NE,48,1.0,2.0,78,0.00,,,0.01,Wunderground v.1.15,2013-03-01 22:48:00,
2013-03-01 17:54:00,30.1,24.1,29.97,SSW,211,0.0,0.0,78,0.00,,,0.01,Wunderground v.1.15,2013-03-01 22:54:00,
2013-03-01 17:59:00,30.1,24.4,29.97,SE,130,0.0,2.0,79,0.00,,,0.01,Wunderground v.1.15,2013-03-01 22:59:00,
2013-03-01 18:04:00,30.0,24.3,29.97,ESE,119,0.0,4.0,79,0.00,,,0.01,Wunderground v.1.15,2013-03-01 23:04:00,
2013-03-01 18:09:00,29.9,24.2,29.97,ENE,59,1.0,4.0,79,0.00,,,0.01,Wunderground v.1.15,2013-03-01 23:09:00,
2013-03-01 18:14:00,29.8,24.4,29.98,NNE,28,0.0,3.0,80,0.00,,,0.01,Wunderground v.1.15,2013-03-01 23:14:00,
2013-03-01 18:20:00,29.7,24.6,29.98,NNE,23,0.0,3.0,81,0.00,,,0.01,Wunderground v.1.15,2013-03-01 23:20:00,
2013-03-01 18:25:00,29.7,24.9,29.98,ENE,65,0.0,3.0,82,0.00,,,0.01,Wunderground v.1.15,2013-03-01 23:25:00,
2013-03-01 18:30:00,29.7,24.9,29.98,East,94,0.0,0.0,82,0.00,,,0.01,Wunderground v.1.15,2013-03-01 23:30:00,
2013-03-01 18:36:00,29.7,24.6,29.98,ESE,123,0.0,0.0,81,0.00,,,0.01,Wunderground v.1.15,2013-03-01 23:36:00,
2013-03-01 18:42:00,29.6,24.5,29.98,ESE,103,0.0,0.0,81,0.00,,,0.01,Wunderground v.1.15,2013-03-01 23:42:00,
2013-03-01 18:47:00,29.6,24.5,29.98,NE,50,0.0,1.0,81,0.00,,,0.01,Wunderground v.1.15,2013-03-01 23:47:00,
2013-03-01 18:52:00,29.6,24.8,29.98,East,98,0.0,0.0,82,0.00,,,0.01,Wunderground v.1.15,2013-03-01 23:52:00,
2013-03-01 18:57:00,29.6,24.8,29.99,WSW,254,1.0,1.0,82,0.00,,,0.01,Wunderground v.1.15,2013-03-01 23:57:00,
2013-03-01 19:03:00,29.5,24.1,29.99,NE,34,1.0,1.0,80,0.00,,,0.01,Wunderground v.1.15,2013-03-02 00:03:00,
2013-03-01 19:08:00,29.4,24.0,29.99,East,101,0.0,1.0,80,0.00,,,0.01,Wunderground v.1.15,2013-03-02 00:08:00,
2013-03-01 19:14:00,29.4,24.0,29.99,NE,38,0.0,1.0,80,0.00,,,0.01,Wunderground v.1.15,2013-03-02 00:14:00,
2013-03-01 19:19:00,29.3,23.9,29.99,ESE,121,1.0,1.0,80,0.00,,,0.01,Wunderground v.1.15,2013-03-02 00:19:00,
2013-03-01 19:24:00,29.3,23.9,29.99,ESE,121,0.0,1.0,80,0.00,,,0.01,Wunderground v.1.15,2013-03-02 00:24:00,
2013-03-01 19:29:00,29.2,23.8,29.99,SSE,152,0.0,1.0,80,0.00,,,0.01,Wunderground v.1.15,2013-03-02 00:29:00,
2013-03-01 19:35:00,29.2,24.1,29.99,SW,230,0.0,3.0,81,0.00,,,0.01,Wunderground v.1.15,2013-03-02 00:35:00,
2013-03-01 19:40:00,29.2,23.5,29.99,NE,40,1.0,1.0,79,0.00,,,0.01,Wunderground v.1.15,2013-03-02 00:40:00,
2013-03-01 19:45:00,29.2,23.8,29.99,ENE,75,0.0,1.0,80,0.00,,,0.01,Wunderground v.1.15,2013-03-02 00:45:00,
2013-03-01 19:51:00,29.2,23.8,29.99,NE,37,0.0,0.0,80,0.00,,,0.01,Wunderground v.1.15,2013-03-02 00:51:00,
2013-03-01 19:56:00,29.2,23.5,29.99,East,101,1.0,3.0,79,0.00,,,0.01,Wunderground v.1.15,2013-03-02 00:56:00,
2013-03-01 20:02:00,29.1,23.4,29.99,East,101,0.0,0.0,79,0.00,,,0.01,Wunderground v.1.15,2013-03-02 01:02:00,
2013-03-01 20:07:00,29.0,23.3,30.00,East,100,0.0,1.0,79,0.00,,,0.01,Wunderground v.1.15,2013-03-02 01:07:00,
2013-03-01 20:12:00,29.0,23.0,29.99,NE,48,1.0,1.0,78,0.00,,,0.01,Wunderground v.1.15,2013-03-02 01:12:00,
2013-03-01 20:17:00,29.0,23.3,30.00,WSW,248,1.0,1.0,79,0.00,,,0.01,Wunderground v.1.15,2013-03-02 01:17:00,
2013-03-01 20:22:00,29.0,23.3,30.00,East,101,0.0,0.0,79,0.00,,,0.01,Wunderground v.1.15,2013-03-02 01:22:00,
2013-03-01 20:28:00,29.0,23.6,30.00,East,100,0.0,1.0,80,0.00,,,0.01,Wunderground v.1.15,2013-03-02 01:28:00,
2013-03-01 20:33:00,29.0,23.6,30.00,ESE,103,0.0,0.0,80,0.00,,,0.01,Wunderground v.1.15,2013-03-02 01:33:00,
2013-03-01 20:38:00,29.0,23.6,30.00,North,5,0.0,0.0,80,0.00,,,0.01,Wunderground v.1.15,2013-03-02 01:38:00,
2013-03-01 20:44:00,28.9,23.5,30.00,SW,215,0.0,2.0,80,0.00,,,0.01,Wunderground v.1.15,2013-03-02 01:44:00,
2013-03-01 20:49:00,28.8,23.4,30.00,ENE,59,0.0,2.0,80,0.00,,,0.01,Wunderground v.1.15,2013-03-02 01:49:00,
2013-03-01 20:54:00,28.8,23.4,30.00,SE,142,0.0,2.0,80,0.00,,,0.01,Wunderground v.1.15,2013-03-02 01:54:00,
2013-03-01 20:59:00,28.7,23.3,30.01,SSE,157,0.0,2.0,80,0.00,,,0.01,Wunderground v.1.15,2013-03-02 01:59:00,
2013-03-01 21:05:00,28.5,23.1,30.01,North,355,0.0,0.0,80,0.00,,,0.01,Wunderground v.1.15,2013-03-02 02:05:00,
2013-03-01 21:10:00,28.4,23.0,30.01,North,11,0.0,1.0,80,0.00,,,0.01,Wunderground v.1.15,2013-03-02 02:10:00,
2013-03-01 21:16:00,28.4,23.0,30.01,SE,126,0.0,2.0,80,0.00,,,0.01,Wunderground v.1.15,2013-03-02 02:16:00,
2013-03-01 21:22:00,28.4,22.7,30.00,East,90,0.0,2.0,79,0.00,,,0.01,Wunderground v.1.15,2013-03-02 02:22:00,
2013-03-01 21:27:00,28.4,22.7,30.01,NNE,26,0.0,2.0,79,0.00,,,0.01,Wunderground v.1.15,2013-03-02 02:27:00,
2013-03-01 21:32:00,28.3,22.6,30.01,NE,37,0.0,0.0,79,0.00,,,0.01,Wunderground v.1.15,2013-03-02 02:32:00,
2013-03-01 21:37:00,28.4,22.7,30.01,NE,37,0.0,0.0,79,0.00,,,0.01,Wunderground v.1.15,2013-03-02 02:37:00,
2013-03-01 21:43:00,28.3,22.6,30.01,SE,130,0.0,1.0,79,0.00,,,0.01,Wunderground v.1.15,2013-03-02 02:43:00,
2013-03-01 21:48:00,28.3,22.9,30.01,ESE,106,0.0,1.0,80,0.00,,,0.01,Wunderground v.1.15,2013-03-02 02:48:00,
2013-03-01 21:53:00,28.3,22.6,30.01,ESE,118,0.0,0.0,79,0.00,,,0.01,Wunderground v.1.15,2013-03-02 02:53:00,
2013-03-01 21:59:00,28.3,22.9,30.01,East,94,0.0,1.0,80,0.00,,,0.01,Wunderground v.1.15,2013-03-02 02:59:00,
2013-03-01 22:04:00,28.3,22.6,30.01,ENE,68,0.0,0.0,79,0.00,,,0.01,Wunderground v.1.15,2013-03-02 03:04:00,
2013-03-01 22:09:00,28.3,22.6,30.01,ENE,68,0.0,0.0,79,0.00,,,0.01,Wunderground v.1.15,2013-03-02 03:09:00,
2013-03-01 22:15:00,28.3,22.9,30.01,ENE,78,0.0,1.0,80,0.00,,,0.01,Wunderground v.1.15,2013-03-02 03:15:00,
2013-03-01 22:20:00,28.3,22.6,30.01,ESE,105,0.0,2.0,79,0.00,,,0.01,Wunderground v.1.15,2013-03-02 03:20:00,
2013-03-01 22:26:00,28.2,22.5,30.01,NNE,26,1.0,2.0,79,0.00,,,0.01,Wunderground v.1.15,2013-03-02 03:26:00,
2013-03-01 22:31:00,28.1,22.1,30.01,East,94,0.0,1.0,78,0.00,,,0.01,Wunderground v.1.15,2013-03-02 03:31:00,
2013-03-01 22:37:00,28.1,22.1,30.01,SE,131,0.0,1.0,78,0.00,,,0.01,Wunderground v.1.15,2013-03-02 03:37:00,
2013-03-01 22:42:00,28.0,22.0,30.01,SW,215,0.0,0.0,78,0.00,,,0.01,Wunderground v.1.15,2013-03-02 03:42:00,
2013-03-01 22:47:00,28.0,22.0,30.01,ENE,67,0.0,1.0,78,0.00,,,0.01,Wunderground v.1.15,2013-03-02 03:47:00,
2013-03-01 22:53:00,27.9,21.9,30.01,WNW,283,0.0,0.0,78,0.00,,,0.01,Wunderground v.1.15,2013-03-02 03:53:00,
2013-03-01 22:58:00,27.8,22.1,30.01,SE,140,0.0,1.0,79,0.00,,,0.01,Wunderground v.1.15,2013-03-02 03:58:00,
2013-03-01 23:03:00,27.7,22.0,30.01,NW,309,0.0,3.0,79,0.00,,,0.01,Wunderground v.1.15,2013-03-02 04:03:00,
2013-03-01 23:09:00,27.6,21.9,30.01,SSE,149,0.0,3.0,79,0.00,,,0.01,Wunderground v.1.15,2013-03-02 04:09:00,
2013-03-01 23:14:00,27.5,21.5,30.01,North,5,0.0,1.0,78,0.00,,,0.01,Wunderground v.1.15,2013-03-02 04:14:00,
2013-03-01 23:19:00,27.4,21.7,30.01,NNW,342,1.0,1.0,79,0.00,,,0.01,Wunderground v.1.15,2013-03-02 04:19:00,
2013-03-01 23:24:00,27.3,21.6,30.01,SE,140,1.0,3.0,79,0.00,,,0.01,Wunderground v.1.15,2013-03-02 04:24:00,
2013-03-01 23:29:00,27.2,21.5,30.01,ENE,61,1.0,3.0,79,0.00,,,0.01,Wunderground v.1.15,2013-03-02 04:29:00,
2013-03-01 23:35:00,27.1,21.5,30.01,ESE,104,0.0,1.0,79,0.00,,,0.01,Wunderground v.1.15,2013-03-02 04:35:00,
2013-03-01 23:40:00,27.1,21.7,30.00,East,81,0.0,0.0,80,0.00,,,0.01,Wunderground v.1.15,2013-03-02 04:40:00,
2013-03-01 23:45:00,27.0,21.7,30.00,East,81,0.0,0.0,80,0.00,,,0.01,Wunderground v.1.15,2013-03-02 04:45:00,
2013-03-01 23:50:00,26.9,21.6,30.00,East,91,0.0,1.0,80,0.00,,,0.01,Wunderground v.1.15,2013-03-02 04:50:00,
2013-03-01 23:56:00,26.9,21.3,30.00,NW,318,0.0,2.0,79,0.00,,,0.01,Wunderground v.1.15,2013-03-02 04:56:00,